Flag for Canada Weather past 2 weeks in Guelph, Ontario, Canada

Now
16 °F

Light snow. Ice fog.


Feels Like: 5 °F
Forecast: 3 / 33 °F
Wind: 8 mph from Southeast

Location: Waterloo Well

Current Time: Mar 3, 2015 at 11:13:20 AM

Latest Report: Mar 3, 2015 at 10:00 AM


Visibility: 1 mi

Pressure: 30.19 "Hg

Humidity: 86%

Dew point: 12 °F

Location of GuelphLocation

Historic Weather in Guelph — Graph

°F

Guelph temperature yesterday

Maximum temperature yesterday: 23 °F (at 1:00 PM)
Minimum temperature yesterday: 1 °F (at 11:00 PM)
Average temperature yesterday: 18 °F

Past Weeks' High & Low Weather Summary

 TemperatureHumidityPressure
High23 °F (Mar 1, 1:00 PM)100% (Mar 1, 11:00 PM)30.78 "Hg (Mar 1, 11:00 PM)
Low-15 °F (Feb 16, 9:00 AM)30% (Feb 17, 11:00 AM)29.60 "Hg (Feb 25, 1:00 AM)
Average5 °F76%30.19 "Hg
* Reported Feb 16 9:00 AM — Mar 3 9:46 AM, Guelph, Weather by CustomWeather, © 2015

Note: Actual official high and low records may vary slightly from our data, if they occured in-between our weather recording intervals... More about our weather records

Advertising

Guelph weather history for previous 24 hours

 ConditionsComfort  
Time TempWeatherWind HumidityBarometerVisibility
9:46 AM
Tue, Mar 3
16 °FLight snow. Overcast.10 mph86%30.21 "Hg1 mi
9:00 AM16 °FIce fog.9 mph86%30.24 "Hg6 mi
8:00 AM14 °FIce fog.6 mph92%30.24 "Hg6 mi
7:00 AM9 °FLight snow. Overcast.3 mph92%30.28 "Hg7 mi
6:59 AM9 °FLight snow. Overcast.3 mph92%30.28 "Hg6 mi
6:00 AM7 °FClear.2 mph85%30.32 "Hg9 mi
5:00 AM3 °FPassing clouds.3 mph92%30.35 "Hg9 mi
4:00 AM0 °FOvercast.2 mph84%30.35 "Hg9 mi
3:00 AM-4 °FPassing clouds.No wind84%30.39 "Hg9 mi
2:00 AM-6 °FClear.2 mph84%30.39 "Hg9 mi
1:00 AM-2 °FClear.2 mph84%30.39 "Hg9 mi
12:00 AM7 °FClear.2 mph92%30.41 "Hg9 mi
11:00 PM
Mon, Mar 2
1 °FClear.3 mph92%30.43 "Hg9 mi
10:00 PM7 °FClear.No wind92%30.43 "Hg9 mi
9:00 PM9 °FClear.2 mph85%30.43 "Hg9 mi
8:00 PM14 °FClear.6 mph73%30.45 "Hg9 mi
7:00 PM16 °FClear.5 mph67%30.44 "Hg9 mi
6:02 PM19 °FScattered clouds.10 mph63%30.44 "Hg9 mi
5:00 PM19 °FPassing clouds.16 mph63%30.41 "Hg9 mi
4:50 PM21 °FSunny.16 mph58%30.41 "Hg9 mi
4:00 PM21 °FLight snow. Broken clouds.17 mph63%30.41 "Hg9 mi
3:00 PM21 °FLight snow. Broken clouds.20 mph68%30.40 "Hg9 mi
2:02 PM23 °FLight snow. Broken clouds.21 mph68%30.37 "Hg9 mi
1:00 PM23 °FLight snow. Broken clouds.22 mph68%30.37 "Hg7 mi
12:00 PM21 °FLight snow. Mostly cloudy.21 mph80%30.35 "Hg3 mi
11:03 AM21 °FLight snow. Mostly cloudy.18 mph74%30.33 "Hg8 mi
11:00 AM21 °FLight snow. Cloudy.16 mph74%30.33 "Hg9 mi
Weather by CustomWeather, © 2015

See weather overviewHow to use our weather pages